Time,TemperatureF,DewpointF,PressureIn,WindDirection,WindDirectionDegrees,WindSpeedMPH,WindSpeedGustMPH,Humidity,HourlyPrecipIn,Conditions,Clouds,dailyrainin,SoftwareType,DateUTC
2013-04-12 00:09:00,63.0,58.7,27.83,SSW,193,2.0,7.0,86,0.00,CLR,,0.00,WeatherDisplay:10.37,2013-04-12 04:09:00,
2013-04-12 00:19:00,62.3,59.0,27.89,SSW,201,13.0,23.0,89,0.00,CLR,,0.00,WeatherDisplay:10.37,2013-04-12 04:19:00,
2013-04-12 00:29:00,61.4,58.4,27.89,SSW,193,10.0,15.0,90,0.00,CLR,,0.00,WeatherDisplay:10.37,2013-04-12 04:29:00,
2013-04-12 00:39:00,60.6,57.4,27.89,SSW,209,6.0,16.0,89,0.00,CLR,,0.00,WeatherDisplay:10.37,2013-04-12 04:39:00,
2013-04-12 00:49:00,60.3,57.3,27.86,SW,215,5.0,14.0,90,0.00,CLR,,0.00,WeatherDisplay:10.37,2013-04-12 04:49:00,
2013-04-12 00:59:00,60.3,57.9,27.86,SSW,208,6.0,13.0,92,0.00,CLR,,0.00,WeatherDisplay:10.37,2013-04-12 04:59:00,
2013-04-12 01:09:00,60.1,58.0,27.89,SSW,201,6.0,10.0,93,0.00,CLR,,0.00,WeatherDisplay:10.37,2013-04-12 05:09:00,
2013-04-12 01:19:00,59.9,58.5,27.89,SSW,200,6.0,14.0,95,0.00,CLR,,0.00,WeatherDisplay:10.37,2013-04-12 05:19:00,
2013-04-12 01:29:00,59.7,58.6,27.89,SSW,193,3.0,10.0,96,0.00,CLR,,0.00,WeatherDisplay:10.37,2013-04-12 05:29:00,
2013-04-12 01:39:00,59.5,58.1,27.86,South,186,5.0,6.0,95,0.00,CLR,,0.00,WeatherDisplay:10.37,2013-04-12 05:39:00,
2013-04-12 01:49:00,59.4,57.6,27.89,SSW,194,2.0,7.0,94,0.00,CLR,,0.00,WeatherDisplay:10.37,2013-04-12 05:49:00,
2013-04-12 01:59:00,59.4,57.6,27.89,SSW,193,3.0,6.0,94,0.00,CLR,,0.00,WeatherDisplay:10.37,2013-04-12 05:59:00,
2013-04-12 02:09:00,59.4,57.3,27.83,SW,227,0.0,3.0,93,0.00,CLR,,0.00,WeatherDisplay:10.37,2013-04-12 06:09:00,
2013-04-12 02:19:00,59.3,57.2,27.83,South,186,1.0,3.0,93,0.00,CLR,,0.00,WeatherDisplay:10.37,2013-04-12 06:19:00,
2013-04-12 02:29:00,59.2,58.4,27.83,ENE,78,3.0,4.0,97,0.00,CLR,,0.00,WeatherDisplay:10.37,2013-04-12 06:29:00,
2013-04-12 02:39:00,59.2,58.3,27.80,East,89,0.0,3.0,97,0.00,CLR,,0.00,WeatherDisplay:10.37,2013-04-12 06:39:00,
2013-04-12 02:49:00,59.2,58.3,27.83,SE,136,2.0,3.0,97,0.00,CLR,,0.00,WeatherDisplay:10.37,2013-04-12 06:49:00,
2013-04-12 02:59:00,59.4,59.4,27.83,ENE,67,5.0,6.0,100,0.00,CLR,,0.00,WeatherDisplay:10.37,2013-04-12 06:59:00,
2013-04-12 03:09:00,59.4,59.4,27.77,ESE,122,2.0,6.0,100,0.00,CLR,,0.00,WeatherDisplay:10.37,2013-04-12 07:09:00,
2013-04-12 03:19:00,59.2,59.2,27.77,ESE,105,3.0,5.0,100,0.00,CLR,,0.00,WeatherDisplay:10.37,2013-04-12 07:19:00,
2013-04-12 03:29:00,59.2,59.2,27.77,ENE,74,2.0,4.0,100,0.00,CLR,,0.00,WeatherDisplay:10.37,2013-04-12 07:29:00,
2013-04-12 03:39:00,59.2,59.2,27.77,East,86,2.0,5.0,100,0.00,CLR,,0.00,WeatherDisplay:10.37,2013-04-12 07:39:00,
2013-04-12 03:49:00,59.0,59.0,27.77,East,86,1.0,6.0,100,0.00,CLR,,0.00,WeatherDisplay:10.37,2013-04-12 07:49:00,
2013-04-12 03:59:00,58.8,58.8,27.77,ENE,73,0.0,3.0,100,0.00,CLR,,0.00,WeatherDisplay:10.37,2013-04-12 07:59:00,
2013-04-12 04:09:00,58.6,58.6,27.74,ESE,117,2.0,4.0,100,0.00,CLR,,0.00,WeatherDisplay:10.37,2013-04-12 08:09:00,
2013-04-12 04:19:00,58.5,58.5,27.77,East,79,2.0,5.0,100,0.00,CLR,,0.00,WeatherDisplay:10.37,2013-04-12 08:19:00,
2013-04-12 04:29:00,58.3,58.3,27.77,North,9,0.0,2.0,100,0.00,CLR,,0.00,WeatherDisplay:10.37,2013-04-12 08:29:00,
2013-04-12 04:39:00,58.1,57.3,27.74,SW,216,0.0,4.0,97,0.00,CLR,,0.00,WeatherDisplay:10.37,2013-04-12 08:39:00,
2013-04-12 04:49:00,58.1,57.3,27.74,West,270,0.0,0.0,97,0.00,CLR,,0.00,WeatherDisplay:10.37,2013-04-12 08:49:00,
2013-04-12 04:59:00,58.1,57.3,27.74,SW,232,1.0,3.0,97,0.00,CLR,,0.00,WeatherDisplay:10.37,2013-04-12 08:59:00,
2013-04-12 05:09:00,57.9,56.8,27.74,SSW,203,1.0,3.0,96,0.00,CLR,,0.00,WeatherDisplay:10.37,2013-04-12 09:09:00,
2013-04-12 05:19:00,57.7,56.3,27.74,SSW,209,2.0,3.0,95,0.00,CLR,,0.00,WeatherDisplay:10.37,2013-04-12 09:19:00,
2013-04-12 05:29:00,57.4,56.0,27.74,WNW,292,0.0,1.0,95,0.00,CLR,,0.00,WeatherDisplay:10.37,2013-04-12 09:29:00,
2013-04-12 05:39:00,57.2,55.8,27.74,West,261,0.0,1.0,95,0.00,CLR,,0.00,WeatherDisplay:10.37,2013-04-12 09:39:00,
2013-04-12 05:49:00,56.8,55.4,27.74,WSW,243,0.0,3.0,95,0.00,CLR,,0.00,WeatherDisplay:10.37,2013-04-12 09:49:00,
2013-04-12 05:59:00,56.8,55.4,27.74,SSW,213,2.0,3.0,95,0.00,CLR,,0.00,WeatherDisplay:10.37,2013-04-12 09:59:00,
2013-04-12 06:09:00,57.3,56.2,27.74,SW,215,2.0,5.0,96,0.00,CLR,,0.00,WeatherDisplay:10.37,2013-04-12 10:09:00,
2013-04-12 06:19:00,58.3,58.3,27.77,SW,220,2.0,7.0,100,0.00,CLR,,0.00,WeatherDisplay:10.37,2013-04-12 10:19:00,
2013-04-12 06:29:00,58.6,58.6,27.77,SSW,213,5.0,6.0,100,0.00,CLR,,0.00,WeatherDisplay:10.37,2013-04-12 10:29:00,
2013-04-12 06:39:00,58.8,58.8,27.77,SW,218,5.0,7.0,100,0.00,CLR,,0.00,WeatherDisplay:10.37,2013-04-12 10:39:00,
2013-04-12 06:49:00,59.0,58.2,27.77,SW,223,3.0,8.0,97,0.00,CLR,,0.00,WeatherDisplay:10.37,2013-04-12 10:49:00,
2013-04-12 06:59:00,59.0,57.9,27.77,SSW,212,6.0,9.0,96,0.00,CLR,,0.00,WeatherDisplay:10.37,2013-04-12 10:59:00,
2013-04-12 07:09:00,59.0,57.9,27.80,SSW,205,3.0,12.0,96,0.00,CLR,,0.00,WeatherDisplay:10.37,2013-04-12 11:09:00,
2013-04-12 07:19:00,59.0,57.9,27.80,SSW,200,5.0,6.0,96,0.00,CLR,,0.00,WeatherDisplay:10.37,2013-04-12 11:19:00,
2013-04-12 07:29:00,59.0,58.2,27.80,SSW,199,3.0,6.0,97,0.00,CLR,,0.00,WeatherDisplay:10.37,2013-04-12 11:29:00,
2013-04-12 07:39:00,59.0,59.0,27.80,SSW,205,6.0,9.0,100,0.00,CLR,,0.00,WeatherDisplay:10.37,2013-04-12 11:39:00,
2013-04-12 07:49:00,59.0,59.0,27.83,SSW,212,5.0,10.0,100,0.00,CLR,,0.00,WeatherDisplay:10.37,2013-04-12 11:49:00,
2013-04-12 07:59:00,58.6,58.6,27.83,SSW,210,7.0,13.0,100,0.00,CLR,,0.00,WeatherDisplay:10.37,2013-04-12 11:59:00,
2013-04-12 08:09:00,58.5,57.0,27.83,SW,217,3.0,13.0,95,0.00,CLR,,0.00,WeatherDisplay:10.37,2013-04-12 12:09:00,
2013-04-12 08:19:00,58.3,56.3,27.86,SW,231,5.0,9.0,93,0.00,CLR,,0.00,WeatherDisplay:10.37,2013-04-12 12:19:00,
2013-04-12 08:29:00,57.9,55.3,27.86,SW,223,5.0,7.0,91,0.00,CLR,,0.00,WeatherDisplay:10.37,2013-04-12 12:29:00,
2013-04-12 08:39:00,57.7,55.1,27.86,SSW,210,3.0,8.0,91,0.00,CLR,,0.00,WeatherDisplay:10.37,2013-04-12 12:39:00,
2013-04-12 08:49:00,57.4,54.2,27.86,SW,214,5.0,8.0,89,0.00,CLR,,0.00,WeatherDisplay:10.37,2013-04-12 12:49:00,
2013-04-12 08:59:00,56.7,52.2,27.86,SW,220,8.0,13.0,85,0.00,CLR,,0.00,WeatherDisplay:10.37,2013-04-12 12:59:00,
2013-04-12 09:09:00,56.7,52.8,27.86,SW,217,5.0,12.0,87,0.00,CLR,,0.00,WeatherDisplay:10.37,2013-04-12 13:09:00,
2013-04-12 09:19:00,56.3,52.2,27.89,SW,215,3.0,11.0,86,0.00,CLR,,0.00,WeatherDisplay:10.37,2013-04-12 13:19:00,
2013-04-12 09:29:00,55.9,51.4,27.89,SSW,199,6.0,11.0,85,0.00,CLR,,0.00,WeatherDisplay:10.37,2013-04-12 13:29:00,
2013-04-12 09:39:00,55.5,51.7,27.89,SW,215,5.0,9.0,87,0.00,CLR,,0.00,WeatherDisplay:10.37,2013-04-12 13:39:00,
2013-04-12 09:49:00,55.4,51.6,27.89,SW,216,7.0,10.0,87,0.00,CLR,,0.00,WeatherDisplay:10.37,2013-04-12 13:49:00,
2013-04-12 09:59:00,55.2,51.7,27.89,SSW,213,5.0,10.0,88,0.00,CLR,,0.00,WeatherDisplay:10.37,2013-04-12 13:59:00,
2013-04-12 10:09:00,55.0,51.9,27.89,SSW,197,3.0,7.0,89,0.00,CLR,,0.00,WeatherDisplay:10.37,2013-04-12 14:09:00,
2013-04-12 10:19:00,54.9,52.0,27.89,SSW,198,3.0,8.0,90,0.00,CLR,,0.00,WeatherDisplay:10.37,2013-04-12 14:19:00,
2013-04-12 10:29:00,54.7,51.8,27.89,SSW,212,5.0,9.0,90,0.00,CLR,,0.00,WeatherDisplay:10.37,2013-04-12 14:29:00,
2013-04-12 10:39:00,54.9,52.0,27.89,SSW,212,5.0,8.0,90,0.00,CLR,,0.00,WeatherDisplay:10.37,2013-04-12 14:39:00,
2013-04-12 10:49:00,54.9,52.0,27.89,SSW,213,3.0,12.0,90,0.00,CLR,,0.00,WeatherDisplay:10.37,2013-04-12 14:49:00,
2013-04-12 10:59:00,54.9,51.7,27.89,SSW,203,3.0,7.0,89,0.00,CLR,,0.00,WeatherDisplay:10.37,2013-04-12 14:59:00,
2013-04-12 11:09:00,54.7,50.9,27.92,SSW,203,6.0,8.0,87,0.00,CLR,,0.00,WeatherDisplay:10.37,2013-04-12 15:09:00,
2013-04-12 11:19:00,54.6,50.2,27.92,SW,216,5.0,7.0,85,0.00,CLR,,0.00,WeatherDisplay:10.37,2013-04-12 15:19:00,
2013-04-12 11:29:00,54.5,49.1,27.92,SSW,209,6.0,10.0,82,0.00,CLR,,0.00,WeatherDisplay:10.37,2013-04-12 15:29:00,
2013-04-12 11:39:00,54.5,49.4,27.92,SW,218,2.0,9.0,83,0.00,CLR,,0.00,WeatherDisplay:10.37,2013-04-12 15:39:00,
2013-04-12 11:49:00,54.5,49.8,27.92,SSW,208,2.0,9.0,84,0.00,CLR,,0.00,WeatherDisplay:10.37,2013-04-12 15:49:00,
2013-04-12 11:59:00,54.3,49.9,27.92,SSW,209,3.0,10.0,85,0.00,CLR,,0.00,WeatherDisplay:10.37,2013-04-12 15:59:00,
2013-04-12 12:09:00,54.3,49.9,27.92,SSW,205,3.0,14.0,85,0.00,CLR,,0.00,WeatherDisplay:10.37,2013-04-12 16:09:00,
2013-04-12 12:19:00,54.3,49.3,27.92,SSW,201,7.0,10.0,83,0.00,CLR,,0.00,WeatherDisplay:10.37,2013-04-12 16:19:00,
2013-04-12 12:29:00,54.5,49.1,27.92,SSW,209,6.0,10.0,82,0.00,CLR,,0.00,WeatherDisplay:10.37,2013-04-12 16:29:00,
2013-04-12 12:39:00,54.3,47.6,27.92,SW,218,6.0,10.0,78,0.00,CLR,,0.00,WeatherDisplay:10.37,2013-04-12 16:39:00,
2013-04-12 12:49:00,54.3,45.5,27.92,SSW,206,6.0,12.0,72,0.00,CLR,,0.00,WeatherDisplay:10.37,2013-04-12 16:49:00,
2013-04-12 12:59:00,54.5,45.7,27.92,SSW,203,6.0,10.0,72,0.00,CLR,,0.00,WeatherDisplay:10.37,2013-04-12 16:59:00,
2013-04-12 13:09:00,55.2,44.8,27.92,SW,215,6.0,11.0,68,0.00,CLR,,0.00,WeatherDisplay:10.37,2013-04-12 17:09:00,
2013-04-12 13:19:00,56.7,44.6,27.92,SSW,197,7.0,12.0,64,0.00,CLR,,0.00,WeatherDisplay:10.37,2013-04-12 17:19:00,
2013-04-12 13:29:00,57.0,41.0,27.92,SSW,203,7.0,12.0,55,0.00,CLR,,0.00,WeatherDisplay:10.37,2013-04-12 17:29:00,
2013-04-12 13:39:00,57.1,42.0,27.92,SSW,197,7.0,12.0,57,0.00,CLR,,0.00,WeatherDisplay:10.37,2013-04-12 17:39:00,
2013-04-12 13:49:00,57.9,39.9,27.92,SSW,201,5.0,16.0,51,0.00,CLR,,0.00,WeatherDisplay:10.37,2013-04-12 17:49:00,
2013-04-12 14:09:00,59.5,36.4,27.92,SSW,206,5.0,17.0,42,0.00,CLR,,0.00,WeatherDisplay:10.37,2013-04-12 18:09:00,
2013-04-12 14:19:00,60.0,34.9,27.95,SW,221,6.0,10.0,39,0.00,CLR,,0.00,WeatherDisplay:10.37,2013-04-12 18:19:00,
2013-04-12 14:29:00,61.0,35.2,27.95,SSW,205,9.0,20.0,38,0.00,CLR,,0.00,WeatherDisplay:10.37,2013-04-12 18:29:00,
2013-04-12 15:29:00,62.2,34.9,27.95,SSW,202,8.0,11.0,36,0.00,CLR,,0.00,WeatherDisplay:10.37,2013-04-12 19:29:00,
2013-04-12 15:39:00,61.7,33.7,27.95,SW,216,6.0,10.0,35,0.00,CLR,,0.00,WeatherDisplay:10.37,2013-04-12 19:39:00,
2013-04-12 15:49:00,62.2,34.2,27.98,SW,220,6.0,13.0,35,0.00,CLR,,0.00,WeatherDisplay:10.37,2013-04-12 19:49:00,
2013-04-12 15:59:00,62.4,33.7,27.98,SSW,204,6.0,15.0,34,0.00,CLR,,0.00,WeatherDisplay:10.37,2013-04-12 19:59:00,
2013-04-12 16:09:00,61.9,33.2,27.98,SSW,204,5.0,12.0,34,0.00,CLR,,0.00,WeatherDisplay:10.37,2013-04-12 20:09:00,
2013-04-12 16:19:00,62.6,33.1,27.98,SSW,205,7.0,14.0,33,0.00,CLR,,0.00,WeatherDisplay:10.37,2013-04-12 20:19:00,
2013-04-12 16:29:00,63.1,32.0,27.98,SSW,209,6.0,13.0,31,0.00,CLR,,0.00,WeatherDisplay:10.37,2013-04-12 20:29:00,
2013-04-12 16:39:00,62.8,30.0,27.98,SSW,211,6.0,9.0,29,0.00,CLR,,0.00,WeatherDisplay:10.37,2013-04-12 20:39:00,
2013-04-12 16:49:00,63.7,33.2,27.98,SSW,212,6.0,13.0,32,0.00,CLR,,0.00,WeatherDisplay:10.37,2013-04-12 20:49:00,
2013-04-12 16:59:00,64.1,27.5,27.98,SSW,207,8.0,12.0,25,0.00,CLR,,0.00,WeatherDisplay:10.37,2013-04-12 20:59:00,
2013-04-12 17:09:00,63.3,27.8,28.01,SSW,202,6.0,13.0,26,0.00,CLR,,0.00,WeatherDisplay:10.37,2013-04-12 21:09:00,
2013-04-12 17:19:00,63.4,28.8,28.01,SSW,207,6.0,15.0,27,0.00,CLR,,0.00,WeatherDisplay:10.37,2013-04-12 21:19:00,
2013-04-12 17:29:00,63.1,27.7,28.01,SSW,213,7.0,10.0,26,0.00,CLR,,0.00,WeatherDisplay:10.37,2013-04-12 21:29:00,
2013-04-12 17:39:00,62.4,30.5,28.01,SW,214,5.0,12.0,30,0.00,CLR,,0.00,WeatherDisplay:10.37,2013-04-12 21:39:00,
2013-04-12 17:49:00,62.7,27.3,28.01,SW,228,5.0,10.0,26,0.00,CLR,,0.00,WeatherDisplay:10.37,2013-04-12 21:49:00,
2013-04-12 17:59:00,62.5,27.1,28.01,SW,217,6.0,10.0,26,0.00,CLR,,0.00,WeatherDisplay:10.37,2013-04-12 21:59:00,
2013-04-12 18:09:00,63.5,28.0,28.01,SW,219,5.0,13.0,26,0.00,CLR,,0.00,WeatherDisplay:10.37,2013-04-12 22:09:00,
2013-04-12 18:19:00,63.0,27.5,28.01,SSW,198,5.0,15.0,26,0.00,CLR,,0.00,WeatherDisplay:10.37,2013-04-12 22:19:00,
2013-04-12 18:29:00,63.0,27.5,28.01,SSW,206,3.0,13.0,26,0.00,CLR,,0.00,WeatherDisplay:10.37,2013-04-12 22:29:00,
2013-04-12 18:39:00,62.6,26.2,28.01,SW,216,6.0,10.0,25,0.00,CLR,,0.00,WeatherDisplay:10.37,2013-04-12 22:39:00,
2013-04-12 18:49:00,62.2,26.9,28.01,SSW,203,7.0,11.0,26,0.00,CLR,,0.00,WeatherDisplay:10.37,2013-04-12 22:49:00,
2013-04-12 18:59:00,61.8,26.5,28.01,SSW,206,8.0,12.0,26,0.00,CLR,,0.00,WeatherDisplay:10.37,2013-04-12 22:59:00,
2013-04-12 19:09:00,61.0,25.8,27.98,SSW,202,7.0,10.0,26,0.00,CLR,,0.00,WeatherDisplay:10.37,2013-04-12 23:09:00,
2013-04-12 19:19:00,60.3,25.2,27.98,SSW,204,5.0,13.0,26,0.00,CLR,,0.00,WeatherDisplay:10.37,2013-04-12 23:19:00,
2013-04-12 19:29:00,59.5,25.5,27.98,SSW,207,6.0,7.0,27,0.00,CLR,,0.00,WeatherDisplay:10.37,2013-04-12 23:29:00,
2013-04-12 19:39:00,58.1,26.0,27.98,SSW,199,6.0,10.0,29,0.00,CLR,,0.00,WeatherDisplay:10.37,2013-04-12 23:39:00,
2013-04-12 19:49:00,57.6,27.1,27.98,SSW,207,3.0,8.0,31,0.00,CLR,,0.00,WeatherDisplay:10.37,2013-04-12 23:49:00,
2013-04-12 19:59:00,56.8,27.3,27.98,SSW,206,5.0,9.0,32,0.00,CLR,,0.00,WeatherDisplay:10.37,2013-04-12 23:59:00,
2013-04-12 20:09:00,56.5,28.4,27.98,SW,214,6.0,8.0,34,0.00,CLR,,0.00,WeatherDisplay:10.37,2013-04-13 00:09:00,
2013-04-12 20:19:00,56.1,28.1,27.98,SSW,213,5.0,9.0,34,0.00,CLR,,0.00,WeatherDisplay:10.37,2013-04-13 00:19:00,
2013-04-12 20:29:00,55.9,28.7,27.98,SSW,210,3.0,6.0,35,0.00,CLR,,0.00,WeatherDisplay:10.37,2013-04-13 00:29:00,
2013-04-12 20:39:00,55.2,28.7,27.98,SSW,205,5.0,8.0,36,0.00,CLR,,0.00,WeatherDisplay:10.37,2013-04-13 00:39:00,
2013-04-12 20:49:00,54.9,28.4,27.98,SSW,193,2.0,9.0,36,0.00,CLR,,0.00,WeatherDisplay:10.37,2013-04-13 00:49:00,
2013-04-12 20:59:00,54.7,28.2,27.98,SSW,199,2.0,6.0,36,0.00,CLR,,0.00,WeatherDisplay:10.37,2013-04-13 00:59:00,
2013-04-12 21:09:00,54.1,27.7,28.01,SW,221,1.0,3.0,36,0.00,CLR,,0.00,WeatherDisplay:10.37,2013-04-13 01:09:00,
2013-04-12 21:19:00,53.8,27.4,28.01,SSW,206,1.0,2.0,36,0.00,CLR,,0.00,WeatherDisplay:10.37,2013-04-13 01:19:00,
2013-04-12 21:29:00,53.2,27.6,28.01,SW,225,5.0,6.0,37,0.00,CLR,,0.00,WeatherDisplay:10.37,2013-04-13 01:29:00,
2013-04-12 21:39:00,52.9,26.6,28.04,SW,215,2.0,4.0,36,0.00,CLR,,0.00,WeatherDisplay:10.37,2013-04-13 01:39:00,
2013-04-12 21:49:00,53.0,25.4,28.04,SW,220,2.0,6.0,34,0.00,CLR,,0.00,WeatherDisplay:10.37,2013-04-13 01:49:00,
2013-04-12 21:59:00,53.1,24.7,28.04,SW,215,2.0,6.0,33,0.00,CLR,,0.00,WeatherDisplay:10.37,2013-04-13 01:59:00,
2013-04-12 22:09:00,52.8,25.8,28.04,SSW,212,1.0,5.0,35,0.00,CLR,,0.00,WeatherDisplay:10.37,2013-04-13 02:09:00,
2013-04-12 22:19:00,51.8,25.7,28.04,SW,216,2.0,3.0,36,0.00,CLR,,0.00,WeatherDisplay:10.37,2013-04-13 02:19:00,
2013-04-12 22:29:00,51.3,25.8,28.04,SSW,203,1.0,5.0,37,0.00,CLR,,0.00,WeatherDisplay:10.37,2013-04-13 02:29:00,
2013-04-12 22:39:00,50.7,25.4,28.04,SW,231,0.0,3.0,37,0.00,CLR,,0.00,WeatherDisplay:10.37,2013-04-13 02:39:00,
2013-04-12 22:49:00,49.5,25.5,28.04,WSW,258,0.0,2.0,39,0.00,CLR,,0.00,WeatherDisplay:10.37,2013-04-13 02:49:00,
2013-04-12 22:59:00,49.5,25.5,28.04,WSW,253,2.0,3.0,39,0.00,CLR,,0.00,WeatherDisplay:10.37,2013-04-13 02:59:00,
2013-04-12 23:09:00,50.1,25.4,28.04,WSW,250,1.0,4.0,38,0.00,CLR,,0.00,WeatherDisplay:10.37,2013-04-13 03:09:00,
2013-04-12 23:19:00,50.5,25.2,28.04,WSW,253,1.0,2.0,37,0.00,CLR,,0.00,WeatherDisplay:10.37,2013-04-13 03:19:00,
2013-04-12 23:29:00,50.4,25.0,28.04,West,279,1.0,4.0,37,0.00,CLR,,0.00,WeatherDisplay:10.37,2013-04-13 03:29:00,
2013-04-12 23:39:00,50.2,25.5,28.07,WNW,294,1.0,2.0,38,0.00,CLR,,0.00,WeatherDisplay:10.37,2013-04-13 03:39:00,
2013-04-12 23:49:00,48.9,25.0,28.07,WNW,292,1.0,2.0,39,0.00,CLR,,0.00,WeatherDisplay:10.37,2013-04-13 03:49:00,
2013-04-12 23:59:00,47.8,25.2,28.07,WNW,292,1.0,2.0,41,0.00,CLR,,0.00,WeatherDisplay:10.37,2013-04-13 03:59:00,